Other Public Products
Issued by NWS Grand Forks, ND

Home | Current Version | Previous Version | Graphics & Text | Print | Product List | Glossary On
Versions: 1 2 3 4 5 6 7 8 9 10 11 12 13 14 15 16 17 18 19 20 21 22 23 24 25 26 27 28 29 30 31 32 33 34 35 36 37 38 39 40 41 42 43 44 45 46 47 48 49 50
000
FPUS83 KFGF 110410
OPUFGF
PRAIRIE TO PINES WEATHER ROUNDUP
NATIONAL WEATHER SERVICE EASTERN NORTH DAKOTA/GRAND FORKS ND
1000 PM CST SAT DEC 10 2016

 **SATELLITE DATA USED TO AUGMENT SKY COVER AT AUTOMATED STATIONS**
 *****  WEATHER ACROSS EASTERN NORTH DAKOTA  *****

CITY           SKY/WX    TMP DP  RH WIND       PRES   REMARKS
GRAND FORKS    CLOUDY    -9 -13  83 NE6       30.22F WCI -22
GRAND FORKS AF CLEAR    -13 -18  76 NE6       30.20F WCI -27
GRAND CITY NWS NOT AVBL
BUXTON         NOT AVBL
DEVILS LAKE    CLOUDY    -6 -10  83 E14       30.11F WCI -26
FARGO          FLURRIES   4  -3  73 NE8       30.17F WCI  -9
WAHPETON ARPT  CLOUDY     9   3  78 E9        30.13F WCI  -5
$$

 *****  WEATHER ACROSS CENTRAL AND WESTERN NORTH DAKOTA  *****

CITY           SKY/WX    TMP DP  RH WIND       PRES   REMARKS
JAMESTOWN      LGT SNOW  -1  -6  79 E9        30.05F WCI -16
BISMARCK       LGT SNOW   1  -4  79 E9        29.99S WCI -14
MINOT          LGT SNOW  -3  -8  79 NE9       30.03R WCI -19
MINOT AFB      CLOUDY    -4  -9  81 E13       30.04R WCI -24
GARRISON         N/A     -2  -6  83 E14       29.97F WCI -21
WILLISTON      LGT SNOW   2  -4  76 SE12      29.97S VSB 1   WCI -15
DICKINSON      LGT SNOW  -2  -7  79 SE12      29.82F WCI -20
HETTINGER      LGT SNOW  -1  -5  82 SE7       29.84F VSB 3/4 WCI -14
$$

 *****  OTHER OBSERVATIONS NORTHEAST NORTH DAKOTA  *****

CITY           SKY/WX    TMP DP  RH WIND       PRES   REMARKS
WALHALLA         N/A    -13 -13 100 CALM      30.25S
LANGDON        CLOUDY    -9 -13  84 E12       30.13F WCI -29
CAVALIER         N/A    -13 -17  84 CALM      30.25F
GRAFTON        FAIR      -9 -15  77 NE6       30.25F WCI -23
CANDO          CLOUDY    -6  -9  84 E13       30.13F WCI -25
FORT TOTTEN      N/A     -5  -9  81 E6        29.95S WCI -18
ROLLA          CLOUDY    -8 -11  84 E8        30.08F WCI -23
RUGBY            N/A     -2  -6  84 E15       30.08F WCI -22
 ***** THE ABOVE OBSERVATIONS ARE NON NWS ARE NOT QUALITY
        CONTROLLED AND MAY MIS-REPORT RAIN FOR SNOW...
$$

 *****  OTHER OBSERVATIONS SOUTHEAST NORTH DAKOTA *****

CITY           SKY/WX    TMP DP  RH WIND       PRES   REMARKS
COOPERSTOWN    CLOUDY    -2  -6  84 E14       30.10F WCI -21
VALLEY CITY    FLURRIES   0  -2  92 E13G18    30.09F WCI -18
OAKES          NOT AVBL
GWINNER        CLOUDY     7   3  85 E14       30.06F WCI -10
SHEYENNE NWR     N/A      3  -3  74 E8        29.95  WCI -10
BUFFALO        NOT AVBL
WYNDMERE       NOT AVBL
 ***** THE ABOVE OBSERVATIONS ARE NON NWS ARE NOT QUALITY
       CONTROLLED AND MAY MIS-REPORT RAIN FOR SNOW...
$$

  *****  WEATHER ACROSS NORTHERN MINNESOTA  *****

CITY           SKY/WX    TMP DP  RH WIND       PRES   REMARKS
FLAG ISLAND    NOT AVBL
WARROAD        CLOUDY   -13 -18  77 CALM      30.24S
ROSEAU         CLOUDY   -15 -18  84 CALM      30.24F
HALLOCK        CLOUDY    -9 -13  84 E9        30.24F WCI -27
THF RVR FALLS  CLOUDY    -9 -13  83 NE10      30.20F WCI -27
HALSTAD          N/A      0  -6  76 E8          N/A  WCI -14
FOSSTON        CLOUDY    -9 -15  77 E3        30.17F
BAUDETTE       CLOUDY    -7 -12  79 CALM      30.23S
WASKISH        CLOUDY    -8 -11  84 CALM      30.22F
CROOKSTON      CLOUDY    -6  -9  84 E9        30.22F WCI -22
$$
  *****  WEATHER ACROSS CENTRAL AND WEST MINNESOTA  *****

CITY           SKY/WX    TMP DP  RH WIND       PRES   REMARKS
BEMIDJI        CLOUDY    -1  -6  82 E5        30.17F WCI -12
PARK RAPIDS    CLOUDY     4  -3  73 E7        30.15S WCI  -8
WADENA         FLURRIES   5   0  78 E9        30.13F WCI  -9
DETROIT LAKES  FLURRIES   5   1  85 SE8       30.13F WCI  -8
MOORHEAD       MIX PCPN   3  -2  78 E7        30.16F WCI  -9
FERGUS FALLS   FLURRIES   7   0  72 E8        30.17F WCI  -6
ELBOW LAKE     LGT SNOW   7   3  84 SE14      30.11F WCI -10
MORRIS MN      LGT SNOW  10   7  85 E17       30.09F WCI  -7
STAPLES        NOT AVBL
WHEATON        LGT SNOW  10   9  92 E12       30.12F WCI  -4
$$
  *****  WEATHER ELSEWHERE ACROSS MINNESOTA  *****

CITY           SKY/WX    TMP DP  RH WIND       PRES   REMARKS
DULUTH         CLOUDY     3  -3  76 N6        30.19F WCI  -8
INTRNTL FALLS  CLOUDY   -15 -21  74 CALM      30.24S
ELY            CLOUDY   -11 -17  77 CALM      30.22S
CLOQUET        CLOUDY     3  -2  78 CALM      30.20S
BRAINERD       FLURRIES   7   2  80 E3        30.19R
HIBBING        CLOUDY   -11 -15  82 CALM      30.21F
ALEXANDRIA     LGT SNOW   8   3  80 E12       30.11F WCI  -7
SAINT CLOUD    LGT SNOW  11   7  84 E6        30.18F FOG     WCI   1
MINNEAPOLIS    LGT SNOW  13   9  84 E9        30.19F VSB 1   WCI   1
$$

  *****  WEATHER ACROSS SOUTH DAKOTA  *****

CITY           SKY/WX    TMP DP  RH WIND       PRES   REMARKS
SIOUX FALLS    LGT SNOW  20  18  92 E13       29.95R FOG     WCI   7
BROOKINGS      LGT SNOW  10   9  92 E15       29.94F FOG     WCI  -6
WATERTOWN      LGT SNOW   7   3  84 E15G22    29.95F VSB 1   WCI -10
HURON          LGT SNOW  15  12  88 SE16G23   29.91F FOG     WCI  -1
SISSETON         N/A      7   3  84 E5        30.08F WCI  -2
ABERDEEN       LGT SNOW   8   1  73 E15       29.98F WCI  -9
MITCHELL       CLOUDY    21  18  88 SE18      29.90F WCI   6
PIERRE         CLOUDY    12   8  84 E17       29.83S WCI  -5
MOBRIDGE       LGT SNOW   6   0  76 E10       29.89F VSB 1   WCI  -9
RAPID CITY     LGT SNOW   6   2  83 N9        29.77S FOG     WCI  -8
$$

  *****  SOME WEATHER IN NEARBY STATES *****

CITY           SKY/WX    TMP DP  RH WIND       PRES   REMARKS
GLASGOW MT     LGT SNOW   1  -3  83 E10       29.85S FOG     WCI -15
GREAT FALLS MT CLOUDY    -1  -5  82 E6        29.79R WCI -13
CHEYENNE WY    CLOUDY    42  24  49 W17       29.68S
SCOTTSBLUFF NE CLOUDY    26  21  81 NE3       29.63F
OMAHA NE       CLOUDY    31  20  63 SE15      29.94F WCI  20
DES MOINES IA  CLOUDY    27  19  72 E7        30.05F WCI  19
DAVENPORT IA   CLOUDY    23  19  85 SE14      30.19F WCI  11
CHICAGO IL     LGT SNOW  22  19  89 SE10      30.29F FOG     WCI  11
EAU CLAIRE WI  LGT SNOW  13  10  88 E6        30.22F FOG     WCI   4
LA CROSSE WI   LGT SNOW  18  14  84 E3        30.23F FOG
$$

  *****  SOME NATIONAL WEATHER *****

CITY           SKY/WX    TMP DP  RH WIND       PRES   REMARKS
LA GUARDIA NY  PTCLDY    33  18  53 NW16      30.47R WCI  23
RALEIGH NC     CLEAR     29  16  58 CALM      30.52S
ATLANTA GA     PTCLDY    38  20  48 SE3       30.42R
NEW ORLEANS LA CLEAR     42  34  73 CALM      30.38S
OKLAHOMA CITY  CLOUDY    42  36  79 S23G32    29.93F
ALBUQUERQUE NM CLOUDY    38  29  70 S6        30.04S
SALT LAKE CITY RAIN      37  34  89 N5        29.93R
LOS ANGELES CA CLOUDY    60  59  96 W8        30.11S
BOISE ID       FOG       30  30 100 N5        29.94S VSB 1/4
SEATTLE WA     MOCLDY    41  38  89 S15       29.86R
$$

*** WEATHER ACROSS MANITOBA...SASKATCHEWAN AND ONTARIO ***
                ***ONTARIO***

CITY           SKY/WX    TMP DP  RH WIND       PRES   REMARKS
GERALDTON      FLURRIES   1  -4  78 CALM      30.25S
THUNDER BAY    MOCLDY     3  -2  78 W5        30.32S WCI  -6
SIOUX LOOKOUT  CLEAR    -18 -24  76 NE2       30.24S
TORONTO        PTCLDY    21  18  86 W13       30.35R WCI   9
BIG TROUT LK   CLEAR    -15 -20  76 NW3       30.25F
PICKLE LAKE    NOT AVBL
DRYDEN         CLEAR     -9 -13  84 E3        30.22F
KENORA         PTCLDY    -6  -9  84 NE5       30.22F WCI -17
$$
                *** MANITOBA***

CITY           SKY/WX    TMP DP  RH WIND       PRES   REMARKS
BRANDON        CLEAR    -17 -24  70 NE8       30.16F WCI -34
DAUPHIN        CLEAR    -24 -31  69 W8        30.21F WCI -43
ISLAND LAKE    NOT AVBL
PILOT MOUND      N/A    -15 -18  84 E8          N/A  WCI -32
THE PAS        CLEAR    -13 -20  70 S2        30.17F
THOMPSON       PTCLDY    -9 -15  77 SW6       30.13F WCI -23
WINNIPEG       CRYSTALS  -9 -13  84 E2        30.28F
LYNN LAKE      CLOUDY   -15 -18  84 SW7       30.01F WCI -31
CHURCHILL      PTCLDY    -9 -15  77 SW12      30.03F WCI -29
GILLAM         FLURRIES  -8 -13  77 SW12G17   30.14F WCI -27
$$
                ***SASKATCHEWAN***

CITY           SKY/WX    TMP DP  RH WIND       PRES   REMARKS
ESTEVAN        NOT AVBL
KINDERSLEY     CLOUDY     1  -4  78 SE12      29.91S WCI -15
LLOYDMINSTER   FLURRIES  -4  -8  84 S5        29.96F WCI -15
PRINCE ALBERT  MOCLDY   -15 -20  76 E2        30.09F
REGINA         MOCLDY    -9 -18  64 SE12      30.02F WCI -29
YORKTON        PTCLDY   -17 -22  76 VRB2      30.12S  C1F1C2F2C3F3C4F4C5F5C6F6C7F7C8F8C9F9CaFaCbFbCcFcCdFdCe!


USA.gov is the U.S. government's official web portal to all federal, state and local government web resources and services.